Погода в Шаблыкино

Россия / Орловская область     52°51′13″N   35°11′23″E
темп.,
°C
ветер,
м/с
пор.,
м/с
влажн.,
%
обл.,
%
осадки,
мм/ч
давл.,
гПа
погр.,
м
21 апреля, ср
ср2100:00+3ссв4797100 0.0 1008371
03:00+3ссз4697100 0.1 1006373
06:00+2сз4697100 0.0 1007461
09:00+3зсз3594100 0.1 1008531
12:00+6з4474100 0.1 1009962
15:00+7зюз4573100 0.1 1010961
18:00+5з4592100 0.2 1012579
21:00+4юз3496100 1.0 1014494
22 апреля, чт
чт2200:00+4ююз4891100 0.4 1015445
03:00+2ю489617 0.4 1016212
06:00+2ю410958 0.0 1016219
09:00+8ю598328 0.0 1016402
12:00+13ююз696787 0.3 10161424
15:00+11ююз8117658 1.7 10161038
18:00+12ююз6117394 0.6 1016833
21:00+9ю4128582 0.6 1017228
23 апреля, пт
пт2300:00+8ю5148480 0.2 1016330
03:00+8ю51482100 0.3 1016326
06:00+8ю5138691 0.0 1016388
09:00+12ю713747 0.1 1016798
12:00+15ю9125752 0.6 10141815
15:00+14ю7106099 1.5 10131007
18:00+10зсз3593100 3.1 1012202
21:00+7зюз1296100 8.1 1013220
24 апреля, сб
сб2400:00+5зсз6795100 4.4 1011613
03:00+3зсз4997100 6.8 1012596
06:00+3з4893100 1.6 1012499
09:00+6з69705 1.6 1012998
12:00+8зюз795279 0.1 10122098
15:00+7з81153100 0.7 10122188
18:00+6з7106474 0.4 10121501
21:00+3зюз511795 0.5 1013493
25 апреля, вс
вс2500:00+1юз510875 0.0 1013328
03:000юз489320 0.0 1014205
06:000зюз499368 0.0 1014265
09:00+5зюз587112 0.1 1013961
12:00+7зюз7954100 0.9 10132041
15:00+7з71051100 1.8 10122209
18:00+6з7105596 0.3 10131288
21:00+2зюз410775 0.3 1014286